timestamp,wind_dir_avg,wind_spd_avg,wind_spd_max_dir,wind_spd_gust,battery_voltage,lat,long
2023-12-28 00:04:00+00:00,300.0,6.39,299.0,7.33,12.41,47.59359,-54.27349
2023-12-28 00:14:00+00:00,306.0,6.6,313.0,7.79,12.33,47.59359,-54.27349
2023-12-28 00:24:00+00:00,286.0,6.05,288.0,6.67,12.33,47.59359,-54.27349
2023-12-28 00:34:00+00:00,301.0,4.75,297.0,5.39,12.33,47.59359,-54.27349
2023-12-28 00:44:00+00:00,297.0,6.28,293.0,7.46,12.33,47.59359,-54.27349
2023-12-28 00:54:00+00:00,288.0,6.22,275.0,8.86,12.33,47.59359,-54.27349
2023-12-28 01:04:00+00:00,304.0,6.5,306.0,7.3,12.33,47.59359,-54.27349
2023-12-28 01:14:00+00:00,301.0,6.62,292.0,7.45,12.33,47.59359,-54.27349
2023-12-28 01:24:00+00:00,310.0,5.49,304.0,7.04,12.33,47.59359,-54.27349
2023-12-28 01:34:00+00:00,290.0,5.78,289.0,6.29,12.33,47.59359,-54.27349
2023-12-28 01:44:00+00:00,294.0,5.34,296.0,6.12,12.33,47.59359,-54.27349
2023-12-28 01:54:00+00:00,304.0,5.73,304.0,6.3,12.33,47.59359,-54.27349
2023-12-28 02:04:00+00:00,273.0,5.07,277.0,6.19,12.33,47.59359,-54.27349
2023-12-28 02:14:00+00:00,262.0,6.23,264.0,7.55,12.33,47.59359,-54.27349
2023-12-28 02:24:00+00:00,268.0,5.68,269.0,7.43,12.33,47.59359,-54.27349
2023-12-28 02:34:00+00:00,258.0,5.61,258.0,7.31,12.33,47.59359,-54.27349
2023-12-28 02:44:00+00:00,278.0,5.49,288.0,7.07,12.33,47.59359,-54.27349
2023-12-28 02:54:00+00:00,272.0,5.09,278.0,6.94,12.33,47.59359,-54.27349
2023-12-28 03:04:00+00:00,281.0,6.58,281.0,7.77,12.33,47.59359,-54.27349
2023-12-28 03:14:00+00:00,270.0,7.07,254.0,8.85,12.25,47.59359,-54.27349
2023-12-28 03:24:00+00:00,291.0,7.07,292.0,8.43,12.25,47.59359,-54.27349
2023-12-28 03:34:00+00:00,272.0,5.39,274.0,6.65,12.25,47.59359,-54.27349
2023-12-28 03:44:00+00:00,257.0,5.63,257.0,6.74,12.25,47.59359,-54.27349
2023-12-28 03:54:00+00:00,273.0,6.16,270.0,7.63,12.25,47.59359,-54.27349
2023-12-28 04:04:00+00:00,280.0,7.0,281.0,9.29,12.25,47.59359,-54.27349
2023-12-28 04:14:00+00:00,278.0,6.99,283.0,8.41,12.25,47.59359,-54.27349
2023-12-28 04:24:00+00:00,271.0,7.0,270.0,8.42,12.25,47.59359,-54.27349
2023-12-28 04:34:00+00:00,258.0,5.74,255.0,6.9,12.25,47.59359,-54.27349
2023-12-28 04:44:00+00:00,265.0,5.6,264.0,7.43,12.25,47.59359,-54.27349
2023-12-28 04:54:00+00:00,264.0,5.41,263.0,6.92,12.25,47.59359,-54.27349
2023-12-28 05:04:00+00:00,282.0,6.81,281.0,8.62,12.25,47.59359,-54.27349
2023-12-28 05:14:00+00:00,275.0,6.06,268.0,7.41,12.25,47.59359,-54.27349
2023-12-28 05:24:00+00:00,277.0,4.82,282.0,5.27,12.25,47.59359,-54.27349
2023-12-28 05:34:00+00:00,257.0,4.98,262.0,5.45,12.25,47.59359,-54.27349
2023-12-28 05:44:00+00:00,249.0,4.78,250.0,5.24,12.25,47.59359,-54.27349
2023-12-28 05:54:00+00:00,250.0,4.91,257.0,5.76,12.25,47.59359,-54.27349
2023-12-28 06:04:00+00:00,250.0,5.09,257.0,5.84,12.25,47.59359,-54.27349
2023-12-28 06:14:00+00:00,235.0,5.0,236.0,6.28,12.17,47.59359,-54.27349
2023-12-28 06:24:00+00:00,245.0,4.71,234.0,5.47,12.17,47.59359,-54.27349
2023-12-28 06:34:00+00:00,270.0,4.51,262.0,5.26,12.17,47.59359,-54.27349
2023-12-28 06:44:00+00:00,245.0,4.22,247.0,5.34,12.17,47.59359,-54.27349
2023-12-28 06:54:00+00:00,234.0,3.11,235.0,3.8,12.17,47.59359,-54.27349
2023-12-28 07:04:00+00:00,242.0,3.47,241.0,4.24,12.17,47.59359,-54.27349
2023-12-28 07:14:00+00:00,246.0,4.97,247.0,5.64,12.17,47.59359,-54.27349
2023-12-28 07:24:00+00:00,270.0,3.7,270.0,4.22,12.17,47.59359,-54.27349
2023-12-28 07:34:00+00:00,253.0,4.21,253.0,4.88,12.17,47.59359,-54.27349
2023-12-28 07:44:00+00:00,256.0,4.16,251.0,5.17,12.17,47.59359,-54.27349
2023-12-28 07:54:00+00:00,257.0,3.38,248.0,3.95,12.17,47.59359,-54.27349
2023-12-28 08:04:00+00:00,268.0,3.62,271.0,4.4,12.17,47.59359,-54.27349
2023-12-28 08:14:00+00:00,254.0,4.61,250.0,5.28,12.17,47.59359,-54.27349
2023-12-28 08:24:00+00:00,257.0,4.91,255.0,5.68,12.17,47.59359,-54.27349
2023-12-28 08:34:00+00:00,246.0,4.98,248.0,5.46,12.17,47.59359,-54.27349
2023-12-28 08:44:00+00:00,243.0,4.96,248.0,5.51,12.17,47.59359,-54.27349
2023-12-28 08:54:00+00:00,243.0,4.95,234.0,5.77,12.17,47.59359,-54.27349
2023-12-28 09:04:00+00:00,241.0,4.76,236.0,5.53,12.17,47.59359,-54.27349
2023-12-28 09:14:00+00:00,252.0,5.27,252.0,5.8,12.17,47.59359,-54.27349
2023-12-28 09:24:00+00:00,267.0,4.03,261.0,4.43,12.17,47.59359,-54.27349
2023-12-28 09:34:00+00:00,258.0,3.85,256.0,4.32,12.17,47.59359,-54.27349
2023-12-28 09:44:00+00:00,271.0,3.11,264.0,3.76,12.17,47.59359,-54.27349
2023-12-28 09:54:00+00:00,278.0,3.52,281.0,4.0,12.17,47.59359,-54.27349
2023-12-28 10:04:00+00:00,270.0,4.07,269.0,4.68,12.17,47.59359,-54.27349
2023-12-28 10:14:00+00:00,269.0,3.37,280.0,3.8,12.17,47.59359,-54.27349
2023-12-28 10:24:00+00:00,288.0,3.09,297.0,3.52,12.17,47.59359,-54.27349
2023-12-28 10:34:00+00:00,267.0,3.1,270.0,4.03,12.17,47.59359,-54.27349
2023-12-28 10:44:00+00:00,269.0,3.37,270.0,3.77,12.17,47.59359,-54.27349
2023-12-28 10:54:00+00:00,262.0,3.28,258.0,3.65,12.17,47.59359,-54.27349
2023-12-28 11:04:00+00:00,253.0,3.18,250.0,3.49,12.17,47.59359,-54.27349
2023-12-28 11:14:00+00:00,249.0,3.67,249.0,3.83,12.17,47.59359,-54.27349
2023-12-28 11:24:00+00:00,259.0,3.84,263.0,4.44,12.17,47.59359,-54.27349
2023-12-28 11:34:00+00:00,254.0,3.59,258.0,4.01,12.17,47.59359,-54.27349
2023-12-28 11:44:00+00:00,262.0,2.93,255.0,3.36,12.17,47.59359,-54.27349
2023-12-28 11:54:00+00:00,274.0,3.39,271.0,3.97,12.17,47.59359,-54.27349
2023-12-28 12:04:00+00:00,267.0,3.62,272.0,4.2,12.17,47.59359,-54.27349
2023-12-28 12:14:00+00:00,296.0,3.68,301.0,4.43,12.09,47.59359,-54.27349
2023-12-28 12:24:00+00:00,297.0,3.87,305.0,5.52,12.09,47.59359,-54.27349
2023-12-28 12:34:00+00:00,279.0,3.93,281.0,4.5,12.09,47.59359,-54.27349
2023-12-28 12:44:00+00:00,287.0,2.95,287.0,3.34,12.09,47.59359,-54.27349
2023-12-28 12:54:00+00:00,278.0,3.57,288.0,4.06,12.09,47.59359,-54.27349
2023-12-28 13:04:00+00:00,281.0,3.13,282.0,3.53,12.09,47.59359,-54.27349
2023-12-28 13:14:00+00:00,300.0,3.41,288.0,3.92,12.33,47.59359,-54.27349
2023-12-28 13:24:00+00:00,308.0,3.07,310.0,3.63,12.33,47.59359,-54.27349
2023-12-28 13:34:00+00:00,301.0,3.17,308.0,3.71,12.33,47.59359,-54.27349
2023-12-28 13:44:00+00:00,291.0,2.61,287.0,3.33,12.33,47.59359,-54.27349
2023-12-28 13:54:00+00:00,297.0,2.61,308.0,3.16,12.33,47.59359,-54.27349
2023-12-28 14:04:00+00:00,274.0,2.81,271.0,3.23,12.33,47.59359,-54.27349
2023-12-28 14:14:00+00:00,266.0,2.58,253.0,3.01,13.44,47.59359,-54.27349
2023-12-28 14:24:00+00:00,255.0,1.73,248.0,2.3,13.44,47.59359,-54.27349
2023-12-28 14:34:00+00:00,237.0,2.14,234.0,2.95,13.44,47.59359,-54.27349
2023-12-28 14:44:00+00:00,240.0,3.64,253.0,4.31,13.44,47.59359,-54.27349
2023-12-28 14:54:00+00:00,236.0,4.11,248.0,4.72,13.44,47.59359,-54.27349
2023-12-28 15:04:00+00:00,237.0,3.66,235.0,4.2,13.44,47.59359,-54.27349
2023-12-28 15:14:00+00:00,239.0,3.07,233.0,3.75,13.6,47.59359,-54.27349
2023-12-28 15:24:00+00:00,227.0,2.88,229.0,3.49,13.6,47.59359,-54.27349
2023-12-28 15:34:00+00:00,235.0,4.25,231.0,4.65,13.6,47.59359,-54.27349
2023-12-28 15:44:00+00:00,232.0,4.65,229.0,5.67,13.6,47.59359,-54.27349
2023-12-28 15:54:00+00:00,267.0,6.13,266.0,9.03,13.6,47.59359,-54.27349
2023-12-28 16:04:00+00:00,259.0,6.36,263.0,9.51,13.6,47.59359,-54.27349
2023-12-28 16:14:00+00:00,285.0,8.45,286.0,9.76,13.53,47.59359,-54.27349
2023-12-28 16:24:00+00:00,278.0,7.96,278.0,9.24,13.53,47.59359,-54.27349
2023-12-28 16:34:00+00:00,286.0,7.77,295.0,10.11,13.53,47.59359,-54.27349
2023-12-28 16:44:00+00:00,274.0,8.1,273.0,9.58,13.53,47.59359,-54.27349
2023-12-28 16:54:00+00:00,287.0,9.8,290.0,11.36,13.53,47.59359,-54.27349
2023-12-28 17:04:00+00:00,293.0,9.52,293.0,11.22,13.53,47.59359,-54.27349
2023-12-28 17:14:00+00:00,284.0,10.99,291.0,12.86,13.13,47.59359,-54.27349
2023-12-28 17:24:00+00:00,283.0,8.12,286.0,9.49,13.13,47.59359,-54.27349
2023-12-28 17:34:00+00:00,279.0,8.05,284.0,9.58,13.13,47.59359,-54.27349
2023-12-28 17:44:00+00:00,272.0,7.75,272.0,10.01,13.13,47.59359,-54.27349
2023-12-28 17:54:00+00:00,291.0,7.25,296.0,9.78,13.13,47.59359,-54.27349
2023-12-28 18:04:00+00:00,290.0,7.73,292.0,10.4,13.13,47.59359,-54.27349
2023-12-28 18:14:00+00:00,301.0,7.9,299.0,10.42,12.81,47.59359,-54.27349
2023-12-28 18:24:00+00:00,305.0,5.46,296.0,6.35,12.81,47.59359,-54.27349
2023-12-28 18:34:00+00:00,336.0,5.86,325.0,7.07,12.81,47.59359,-54.27349
2023-12-28 18:44:00+00:00,338.0,4.82,320.0,6.38,12.81,47.59359,-54.27349
2023-12-28 18:54:00+00:00,324.0,4.7,321.0,6.03,12.81,47.59359,-54.27349
2023-12-28 19:04:00+00:00,321.0,5.84,326.0,7.14,12.81,47.59359,-54.27349
2023-12-28 19:14:00+00:00,305.0,6.49,293.0,9.57,13.68,47.59359,-54.27349
2023-12-28 19:24:00+00:00,321.0,6.24,330.0,7.54,13.68,47.59359,-54.27349
2023-12-28 19:34:00+00:00,323.0,7.87,326.0,8.82,13.68,47.59359,-54.27349
2023-12-28 19:44:00+00:00,321.0,6.59,324.0,7.62,13.68,47.59359,-54.27349
2023-12-28 19:54:00+00:00,316.0,7.37,310.0,8.59,13.68,47.59359,-54.27349
2023-12-28 20:04:00+00:00,313.0,5.54,318.0,6.33,13.68,47.59359,-54.27349
2023-12-28 20:14:00+00:00,305.0,5.51,306.0,6.2,12.57,47.59359,-54.27349
2023-12-28 20:24:00+00:00,302.0,4.5,310.0,5.24,12.57,47.59359,-54.27349
2023-12-28 20:34:00+00:00,314.0,5.96,316.0,7.28,12.57,47.59359,-54.27349
2023-12-28 20:44:00+00:00,315.0,5.04,314.0,6.25,12.57,47.59359,-54.27349
2023-12-28 20:54:00+00:00,322.0,7.17,322.0,8.02,12.57,47.59359,-54.27349
2023-12-28 21:04:00+00:00,319.0,6.24,322.0,7.79,12.57,47.59359,-54.27349
2023-12-28 21:14:00+00:00,331.0,5.57,331.0,6.69,12.41,47.59359,-54.27349
2023-12-28 21:24:00+00:00,326.0,6.4,324.0,8.13,12.41,47.59359,-54.27349
2023-12-28 21:34:00+00:00,330.0,6.03,335.0,6.88,12.41,47.59359,-54.27349
2023-12-28 21:44:00+00:00,319.0,6.15,321.0,8.04,12.41,47.59359,-54.27349
2023-12-28 21:54:00+00:00,319.0,5.74,324.0,7.03,12.41,47.59359,-54.27349
2023-12-28 22:04:00+00:00,316.0,4.91,314.0,6.18,12.41,47.59359,-54.27349
2023-12-28 22:14:00+00:00,299.0,3.83,306.0,5.12,12.41,47.59359,-54.27349
2023-12-28 22:24:00+00:00,299.0,4.59,289.0,5.39,12.41,47.59359,-54.27349
2023-12-28 22:34:00+00:00,312.0,5.18,320.0,6.42,12.41,47.59359,-54.27349
2023-12-28 22:44:00+00:00,301.0,4.97,301.0,5.97,12.41,47.59359,-54.27349
2023-12-28 22:54:00+00:00,316.0,5.12,319.0,5.91,12.41,47.59359,-54.27349
2023-12-28 23:04:00+00:00,314.0,5.09,310.0,5.87,12.41,47.59359,-54.27349
2023-12-28 23:14:00+00:00,314.0,4.97,312.0,5.62,12.33,47.59359,-54.27349
2023-12-28 23:24:00+00:00,321.0,4.73,325.0,5.28,12.33,47.59359,-54.27349
2023-12-28 23:34:00+00:00,321.0,4.88,320.0,5.61,12.33,47.59359,-54.27349
2023-12-28 23:44:00+00:00,322.0,5.59,317.0,6.54,12.33,47.59359,-54.27349
2023-12-28 23:54:00+00:00,318.0,5.41,321.0,6.01,12.33,47.59359,-54.27349
